Weather History for Salon, France

Change the Weather History Date:

Tuesday, December 4, 2012

  Actual Average (LFML) Record (LFML)
Temperature  
Mean Temperature 45 °F -  
Max Temperature 57 °F 54 °F 64 °F (2003)
Min Temperature 32 °F 41 °F 28 °F (2013)
Degree Days  
Heating Degree Days 20    
Moisture  
Dew Point 35 °F    
Average Humidity 74    
Maximum Humidity 93    
Minimum Humidity 41    
Precipitation  
Precipitation 0.00 in - - ()
Sea Level Pressure  
Sea Level Pressure 29.87 in    
Wind  
Wind Speed 4 mph ()    
Max Wind Speed 20 mph    
Max Gust Speed 36 mph    
Visibility 6.2 miles    
Events Rain    
Averages and records for this station are not official NWS values.
T = Trace of Precipitation, MM = Missing Value Source: Averaged Metar Reports

Daily Weather History Graph

Daily Weather History Graph

Search for Another Location

Airport:

Trip Planner

Search our weather history database for the weather conditions in past years. The results will help you decide how hot, cold, wet, or windy it might be!

Date:

Astronomy

Dec. 04, 2012 Rise Set
Actual Time 7:56 AM CET 5:03 PM CET
Civil Twilight 7:24 AM CET 5:35 PM CET
Nautical Twilight 6:48 AM CET 6:11 PM CET
Astronomical Twilight 6:13 AM CET 6:46 PM CET
Moon 10:41 PM CET (12/4) 11:36 AM CET (12/4)
Length of Visible Light 10h 11m
Length of Day
9h 06m
Waning Gibbous, 72% of the Moon is Illuminated
Dec 4
Waning Gibbous
Dec 6
Last Quarter
Dec 13
New
Dec 20
First Quarter
Dec 28
Full

Hourly Weather History & Observations

Time (CET) Temp. Windchill Dew Point Humidity Pressure Visibility Wind Dir Wind Speed Gust Speed Precip Events Conditions
12:00 AM 37.4 °F - 33.8 °F 87% 30.04 in 6.2 mi NE 2.3 mph - N/A   Mostly Cloudy
12:30 AM 37.4 °F - 33.8 °F 87% 30.01 in 6.2 mi Calm Calm - N/A   Unknown
1:00 AM 39.2 °F - 33.8 °F 81% 30.01 in 6.2 mi Calm Calm - N/A   Unknown
1:30 AM 39.2 °F - 33.8 °F 81% 30.01 in 6.2 mi Calm Calm - N/A   Unknown
2:00 AM 39.2 °F - 35.6 °F 87% 29.98 in 6.2 mi Calm Calm - N/A   Unknown
2:30 AM 39.2 °F - 35.6 °F 87% 29.95 in 6.2 mi Calm Calm - N/A   Unknown
3:00 AM 39.2 °F - 35.6 °F 87% 29.95 in 6.2 mi Calm Calm - N/A   Unknown
3:30 AM 39.2 °F - 35.6 °F 87% 29.95 in 6.2 mi Calm Calm - N/A   Unknown
4:00 AM 39.2 °F - 35.6 °F 87% 29.92 in 6.2 mi ESE 2.3 mph - N/A   Unknown
4:30 AM 41.0 °F - 37.4 °F 87% 29.92 in 6.2 mi West 2.3 mph - N/A   Unknown
5:00 AM 41.0 °F - 37.4 °F 87% 29.89 in 6.2 mi ENE 2.3 mph - N/A Rain Light Rain
5:30 AM 41.0 °F 39.0 °F 39.2 °F 93% 29.86 in 6.2 mi ENE 3.5 mph - N/A Rain Light Rain
6:00 AM 41.0 °F 38.0 °F 39.2 °F 93% 29.86 in 6.2 mi North 4.6 mph - N/A   Unknown
6:30 AM 42.8 °F 41.1 °F 41.0 °F 93% 29.86 in 6.2 mi Variable 3.5 mph - N/A   Unknown
7:00 AM 42.8 °F 41.1 °F 41.0 °F 93% 29.86 in 6.2 mi NNE 3.5 mph - N/A   Unknown
7:30 AM 42.8 °F - 41.0 °F 93% 29.83 in 6.2 mi Calm Calm - N/A   Unknown
8:00 AM 42.8 °F - 41.0 °F 93% 29.83 in 6.2 mi North 2.3 mph - N/A   Unknown
8:30 AM 44.6 °F - 42.8 °F 93% 29.83 in 6.2 mi Calm Calm - N/A   Unknown
9:00 AM 44.6 °F - 41.0 °F 87% 29.83 in 6.2 mi Calm Calm - N/A   Unknown
9:30 AM 44.6 °F - 42.8 °F 93% 29.83 in 6.2 mi Variable 1.2 mph - N/A   Unknown
10:00 AM 44.6 °F - 41.0 °F 87% 29.83 in 6.2 mi Calm Calm - N/A   Unknown
10:30 AM 48.2 °F - 44.6 °F 87% 29.83 in 6.2 mi Variable 3.5 mph - N/A   Unknown
11:00 AM 55.4 °F - 39.2 °F 54% 29.83 in 6.2 mi West 10.4 mph - N/A   Unknown
11:30 AM 55.4 °F - 37.4 °F 51% 29.83 in 6.2 mi West 10.4 mph - N/A   Unknown
12:00 PM 57.2 °F - 35.6 °F 44% 29.83 in 6.2 mi WNW 10.4 mph - N/A   Unknown
12:30 PM 55.4 °F - 35.6 °F 47% 29.80 in 6.2 mi WNW 10.4 mph - N/A   Unknown
1:00 PM 57.2 °F - 33.8 °F 41% 29.80 in 6.2 mi West 16.1 mph - N/A   Unknown
1:30 PM 55.4 °F - 32.0 °F 41% 29.77 in 6.2 mi West 18.4 mph 35.7 mph N/A   Unknown
2:00 PM 55.4 °F - 33.8 °F 44% 29.80 in 6.2 mi WNW 19.6 mph 32.2 mph N/A   Unknown
2:30 PM 48.2 °F - 37.4 °F 66% 29.83 in 6.2 mi NNW 18.4 mph - N/A   Mostly Cloudy
3:00 PM 48.2 °F - 35.6 °F 62% 29.83 in 6.2 mi NNW 19.6 mph - N/A   Unknown
3:30 PM 48.2 °F - 35.6 °F 62% 29.83 in 6.2 mi NNW 16.1 mph - N/A   Unknown
4:00 PM 50.0 °F - 35.6 °F 58% 29.83 in 6.2 mi NNW 11.5 mph - N/A   Unknown
4:30 PM 48.2 °F - 33.8 °F 58% 29.86 in 6.2 mi NW 11.5 mph - N/A   Unknown
5:00 PM 46.4 °F 43.5 °F 35.6 °F 66% 29.86 in 6.2 mi WNW 5.8 mph - N/A   Unknown
5:30 PM 46.4 °F 42.9 °F 33.8 °F 62% 29.86 in 6.2 mi WNW 6.9 mph - N/A   Unknown
6:00 PM 46.4 °F 41.9 °F 33.8 °F 62% 29.86 in 6.2 mi NW 9.2 mph - N/A   Unknown
6:30 PM 44.6 °F 40.2 °F 33.8 °F 66% 29.86 in 6.2 mi NW 8.1 mph - N/A   Unknown
7:00 PM 44.6 °F 40.2 °F 33.8 °F 66% 29.86 in 6.2 mi NW 8.1 mph - N/A   Unknown
7:30 PM 39.2 °F 35.0 °F 32.0 °F 75% 29.89 in 6.2 mi North 5.8 mph - N/A   Unknown
8:00 PM 39.2 °F 33.6 °F 30.2 °F 70% 29.89 in 6.2 mi North 8.1 mph - N/A   Unknown
8:30 PM 41.0 °F - 30.2 °F 65% 29.89 in 6.2 mi Variable 2.3 mph - N/A   Unknown
9:00 PM 41.0 °F 39.0 °F 28.4 °F 61% 29.86 in 6.2 mi West 3.5 mph - N/A   Unknown
9:30 PM 37.4 °F - 28.4 °F 70% 29.86 in 6.2 mi Calm Calm - N/A   Unknown
10:00 PM 35.6 °F - 28.4 °F 75% 29.86 in 6.2 mi Calm Calm - N/A   Unknown
10:30 PM 33.8 °F - 28.4 °F 81% 29.86 in 6.2 mi Variable 1.2 mph - N/A   Unknown
11:00 PM 35.6 °F 32.8 °F 30.2 °F 81% 29.86 in 6.2 mi SSE 3.5 mph - N/A   Unknown
11:30 PM 32.0 °F - 26.6 °F 80% 29.86 in 6.2 mi Calm Calm - N/A   Unknown